This is the latest recevied weather packets stored in our database for station/object 9D9-WX. If no packets are shown the sender has not sent any weather packets the latest 10 day(s).
| Time | Temp. | Humidity | Pressure | Rain* | Wind** | Luminosity | Snow |
|---|---|---|---|---|---|---|---|
| 1777869909 | 8.33° C | 75% | 978.3 hPa | 0 mm | - | - | - |
| 1777869030 | 8.33° C | 76% | 978.1 hPa | 0 mm | - | - | - |
| 1777868110 | 8.33° C | 76% | 978.1 hPa | 0 mm | - | - | - |
| 1777867235 | 8.33° C | 76% | 978.1 hPa | 0 mm | - | - | - |
| 1777866309 | 8.33° C | 73% | 978.7 hPa | 0 mm | - | - | - |
| 1777865428 | 8.33° C | 75% | 979 hPa | 0 mm | - | - | - |
| 1777864510 | 8.89° C | 75% | 979 hPa | 0 mm | - | - | - |
| 1777863631 | 8.89° C | 75% | 979 hPa | 0 mm | - | - | - |
| 1777862709 | 8.89° C | 69% | 978.7 hPa | 0 mm | - | - | - |
| 1777861823 | 8.89° C | 73% | 979 hPa | 0 mm | - | - | - |
| 1777860909 | 8.89° C | 73% | 979 hPa | 0 mm | - | - | - |
| 1777860031 | 8.89° C | 73% | 979 hPa | 0 mm | - | - | - |
| 1777859109 | 9.44° C | 69% | 979.6 hPa | 0 mm | - | - | - |
| 1777858226 | 9.44° C | 69% | 979.6 hPa | 0 mm | - | - | - |
| 1777857308 | 9.44° C | 69% | 979.6 hPa | 0 mm | - | - | - |
| 1777856432 | 10° C | 69% | 979.6 hPa | 0 mm | - | - | - |
| 1777855509 | 10° C | 64% | 980.2 hPa | 0 mm | - | - | - |
| 1777854627 | 10.56° C | 67% | 980.5 hPa | 0 mm | - | - | - |
| 1777853709 | 10.56° C | 67% | 980.5 hPa | 0 mm | - | - | - |
| 1777852831 | 11.11° C | 67% | 980.5 hPa | 0 mm | - | - | - |
| 1777851909 | 11.67° C | 62% | 981.3 hPa | 0 mm | - | - | - |
| 1777851027 | 11.67° C | 57% | 980.7 hPa | 0 mm | - | - | - |
| 1777850109 | 12.78° C | 57% | 980.7 hPa | 0 mm | - | - | - |
| 1777849230 | 12.78° C | 57% | 980.7 hPa | 0 mm | - | - | - |
| 1777848310 | 13.33° C | 56% | 981.2 hPa | 0 mm | - | - | - |
* Rain latest hour (hover to see other rain measurements)
** Current wind speed in m/s (hover to see current wind gust speed)